QPF
0.00 0.00 0.00 0.00 0.00 0.00 0.00 0.00 0.00 0.00 0.00 0.00 0.00 0.00 0.00 0.00 0.00 0.00 0.00 0.00 0.00 0.00 0.00 0.00 0.00 0.00 0.00 0.00 0.00 0.00 0.00 0.00 0.00 0.00 0.00 0.00 0.00 0.03 0.00 0.00 0.01 0.02 0.03 0.00
0.00 0.00 0.00 0.00 0.00 0.00 0.00 0.00 0.00 0.00 0.00 0.00 0.00 0.00 0.00 0.00 0.00 0.00 0.00 0.00 0.00 0.00 0.00 0.00 0.00 0.00 0.00 0.00 0.00 0.00 0.00 0.00 0.00 0.00 0.00 0.00 0.00 0.00 0.00 0.00 0.00 0.01 0.00 0.01
0.00 0.00 0.00 0.00 0.00 0.00 0.00 0.00 0.00 0.00 0.00 0.00 0.00 0.00 0.00 0.00 0.00 0.00 0.00 0.00 0.00 0.00 0.00 0.00 0.00 0.00 0.00 0.00 0.00 0.00 0.00 0.00 0.00 0.00 0.00 0.01 0.00 0.00 0.00 0.00 0.00 0.00 0.00 0.01
0.00 0.00 0.00 0.00 0.00 0.00 0.00 0.00 0.00 0.00 0.00 0.00 0.00 0.00 0.00 0.00 0.00 0.00 0.00 0.00 0.00 0.00 0.00 0.00 0.00 0.00 0.00 0.00 0.00 0.00 0.00 0.00 0.00 0.00 0.00 0.00 0.00 0.00 0.00 0.00 0.00 0.00 0.00 0.00
0.00 0.00 0.00 0.00 0.00 0.00 0.00 0.00 0.00 0.00 0.00 0.00 0.00 0.00 0.00 0.00 0.00 0.00 0.00 0.00 0.00 0.00 0.00 0.00 0.00 0.00 0.00 0.00 0.00 0.00 0.00 0.00 0.00 0.00 0.00 0.00 0.00 0.00 0.00 0.00 0.00 0.00 0.00 0.00
0.00 0.00 0.00 0.00 0.00 0.00 0.00 0.00 0.00 0.00 0.00 0.00 0.00 0.00 0.00 0.00 0.00 0.00 0.00 0.00 0.00 0.00 0.00 0.00 0.00 0.00 0.00 0.00 0.00 0.00 0.00 0.00 0.00 0.00 0.00 0.00 0.00 0.00 0.00 0.00 0.00 0.00 0.00 0.00
0.00 0.00 0.00 0.00 0.00 0.00 0.00 0.00 0.00 0.00 0.00 0.00 0.00 0.00 0.00 0.00 0.00 0.00 0.00 0.00 0.00 0.00 0.00 0.00 0.00 0.00 0.00 0.00 0.00 0.00 0.00 0.00 0.00 0.00 0.00 0.00 0.00 0.00 0.00 0.00 0.00 0.00 0.00 0.00
0.00 0.00 0.00 0.00 0.00 0.00 0.00 0.00 0.00 0.00 0.00 0.00 0.00 0.00 0.00 0.00 0.00 0.00 0.00 0.00 0.00 0.00 0.00 0.00 0.00 0.00 0.00 0.00 0.00 0.00 0.00 0.00 0.00 0.00 0.00 0.00 0.00 0.00 0.00 0.00 0.00 0.00 0.00 0.00
0.00 0.00 0.00 0.00 0.00 0.00 0.00 0.00 0.00 0.00 0.00 0.00 0.00 0.00 0.00 0.00 0.00 0.00 0.00 0.00 0.00 0.00 0.00 0.00 0.00 0.00 0.00 0.00 0.00 0.00 0.00 0.00 0.00 0.00 0.00 0.00 0.00 0.00 0.00 0.00 0.00 0.00 0.00 0.00
0.00 0.00 0.00 0.00 0.00 0.00 0.00 0.00 0.00 0.00 0.00 0.00 0.00 0.00 0.00 0.00 0.00 0.00 0.00 0.00 0.00 0.00 0.00 0.00 0.00 0.00 0.00 0.00 0.00 0.00 0.00 0.00 0.00 0.00 0.00 0.00 0.00 0.00 0.00 0.00 0.00 0.00 0.00 0.00
0.00 0.00 0.00 0.00 0.00 0.00 0.00 0.00 0.00 0.00 0.00 0.00 0.00 0.00 0.00 0.00 0.00 0.00 0.00 0.00 0.00 0.00 0.00 0.00 0.00 0.00 0.00 0.00 0.00 0.00 0.00 0.00 0.00 0.00 0.00 0.00 0.00 0.00 0.00 0.00 0.00 0.00 0.00 0.00
0.00 0.00 0.00 0.00 0.00 0.00 0.00 0.00 0.00 0.00 0.00 0.00 0.00 0.00 0.00 0.00 0.00 0.00 0.00 0.00 0.00 0.00 0.00 0.00 0.00 0.00 0.00 0.00 0.00 0.00 0.00 0.00 0.00 0.00 0.00 0.00 0.00 0.00 0.00 0.00 0.00 0.00 0.00 0.00
0.00 0.00 0.00 0.00 0.00 0.00 0.00 0.00 0.00 0.00 0.00 0.00 0.00 0.00 0.00 0.00 0.00 0.00 0.00 0.00 0.00 0.00 0.00 0.00 0.00 0.00 0.00 0.00 0.00 0.00 0.00 0.00 0.00 0.00 0.00 0.00 0.00 0.00 0.00 0.00 0.00 0.00 0.00 0.00
0.00 0.00 0.00 0.00 0.00 0.00 0.00 0.00 0.00 0.00 0.00 0.00 0.00 0.00 0.00 0.00 0.00 0.00 0.00 0.00 0.00 0.00 0.00 0.00 0.00 0.00 0.00 0.00 0.00 0.00 0.00 0.00 0.00 0.00 0.00 0.00 0.00 0.00 0.00 0.00 0.00 0.00 0.00 0.00
0.00 0.00 0.00 0.00 0.00 0.00 0.00 0.00 0.00 0.00 0.00 0.00 0.00 0.00 0.00 0.00 0.00 0.00 0.00 0.00 0.00 0.00 0.00 0.00 0.00 0.00 0.00 0.00 0.00 0.00 0.00 0.00 0.00 0.00 0.00 0.00 0.00 0.00 0.00 0.00 0.00 0.01 0.00 0.00
0.00 0.00 0.00 0.00 0.00 0.00 0.00 0.00 0.00 0.00 0.00 0.00 0.00 0.00 0.00 0.00 0.00 0.00 0.00 0.00 0.00 0.00 0.00 0.00 0.00 0.00 0.00 0.00 0.00 0.00 0.00 0.00 0.00 0.00 0.00 0.00 0.00 0.00 0.00 0.00 0.00 0.01 0.01 0.02
0.00 0.00 0.00 0.00 0.00 0.00 0.00 0.00 0.00 0.00 0.00 0.00 0.00 0.00 0.00 0.00 0.00 0.00 0.00 0.00 0.00 0.00 0.00 0.00 0.00 0.00 0.00 0.00 0.00 0.00 0.00 0.00 0.00 0.00 0.00 0.00 0.00 0.00 0.00 0.00 0.00 0.00 0.01 0.03
0.00 0.00 0.00 0.00 0.00 0.00 0.00 0.00 0.00 0.00 0.00 0.00 0.00 0.00 0.00 0.00 0.00 0.00 0.00 0.00 0.00 0.00 0.00 0.00 0.00 0.00 0.00 0.00 0.00 0.00 0.00 0.00 0.00 0.00 0.00 0.00 0.00 0.00 0.00 0.00 0.00 0.00 0.00 0.03
0.00 0.00 0.00 0.00 0.00 0.00 0.00 0.00 0.00 0.00 0.00 0.00 0.00 0.00 0.00 0.00 0.00 0.00 0.00 0.00 0.00 0.00 0.00 0.00 0.00 0.00 0.00 0.00 0.00 0.00 0.00 0.00 0.00 0.00 0.00 0.00 0.00 0.00 0.00 0.00 0.00 0.00 0.00 0.02
0.00 0.00 0.00 0.00 0.00 0.00 0.00 0.00 0.00 0.00 0.00 0.00 0.00 0.00 0.00 0.00 0.00 0.00 0.00 0.00 0.00 0.00 0.00 0.00 0.00 0.00 0.00 0.00 0.00 0.00 0.00 0.00 0.00 0.00 0.00 0.00 0.00 0.00 0.00 0.00 0.00 0.00 0.00 0.01
0.00 0.00 0.00 0.00 0.00 0.00 0.00 0.00 0.00 0.00 0.00 0.00 0.00 0.00 0.00 0.00 0.00 0.00 0.00 0.00 0.00 0.00 0.00 0.00 0.00 0.00 0.00 0.00 0.00 0.00 0.00 0.00 0.00 0.00 0.00 0.00 0.00 0.00 0.00 0.00 0.00 0.00 0.01 0.00
0.00 0.00 0.00 0.00 0.00 0.00 0.01 0.00 0.00 0.00 0.00 0.00 0.00 0.00 0.00 0.00 0.00 0.00 0.00 0.00 0.00 0.00 0.00 0.00 0.00 0.00 0.00 0.00 0.00 0.00 0.00 0.00 0.00 0.00 0.00 0.00 0.00 0.00 0.00 0.00 0.00 0.00 0.00 0.00
0.00 0.00 0.00 0.00 0.00 0.00 0.00 0.00 0.00 0.00 0.00 0.00 0.00 0.00 0.00 0.00 0.00 0.00 0.00 0.00 0.00 0.00 0.00 0.00 0.00 0.00 0.00 0.00 0.00 0.00 0.00 0.00 0.00 0.00 0.00 0.00 0.00 0.00 0.00 0.00 0.00 0.00 0.00 0.00
0.00 0.00 0.00 0.00 0.00 0.00 0.00 0.00 0.00 0.00 0.00 0.00 0.00 0.00 0.00 0.00 0.00 0.00 0.00 0.00 0.00 0.00 0.00 0.00 0.00 0.00 0.00 0.00 0.00 0.00 0.00 0.00 0.00 0.00 0.00 0.00 0.00 0.00 0.00 0.00 0.00 0.01 0.01 0.01
0.34 0.06 0.00 0.01 0.00 0.00 0.00 0.00 0.00 0.00 0.00 0.00 0.00 0.00 0.00 0.00 0.00 0.00 0.00 0.00 0.00 0.00 0.00 0.00 0.00 0.00 0.00 0.00 0.00 0.00 0.00 0.00 0.00 0.00 0.00 0.00 0.00 0.00 0.00 0.00 0.00 0.00 0.00 0.01
0.58 0.28 0.08 0.01 0.00 0.00 0.00 0.00 0.00 0.00 0.00 0.00 0.01 0.04 0.03 0.02 0.01 0.00 0.00 0.00 0.00 0.00 0.00 0.00 0.00 0.00 0.00 0.00 0.00 0.00 0.00 0.00 0.00 0.00 0.00 0.00 0.00 0.00 0.00 0.00 0.00 0.00 0.00 0.00
MSLP
998.82 998.51 997.20 996.97 996.61 996.07 994.97 994.69 994.93 994.97 996.07 997.51 997.92 998.12 998.90 999.96 1000.74 1001.20 1002.07 1003.14 1003.81 1004.53 1005.28 1006.15 1007.08 1007.79 1008.62 1009.41 1010.43 1011.24 1011.89 1012.43 1012.99 1013.43 1013.51 1013.64 1013.83 1014.13 1014.61 1014.34 1014.80 1014.66 1015.28 1015.52
997.96 996.80 996.77 996.77 996.35 995.92 994.85 994.07 993.85 994.25 995.69 996.64 997.08 997.33 997.83 998.67 999.80 1000.34 1000.80 1001.74 1002.69 1003.46 1004.25 1005.36 1006.34 1007.12 1007.96 1008.83 1009.69 1010.69 1011.45 1012.03 1012.75 1012.83 1013.05 1012.82 1013.00 1012.85 1013.07 1012.97 1013.53 1013.97 1014.47 1014.89
995.64 995.79 996.38 995.99 995.59 995.25 994.71 993.71 993.46 993.83 995.07 996.14 996.36 996.54 996.77 997.47 998.46 999.53 1000.10 1000.46 1001.37 1002.25 1003.06 1004.14 1005.37 1006.31 1007.11 1007.97 1008.99 1009.97 1010.85 1011.57 1012.24 1012.28 1012.57 1013.04 1013.08 1012.99 1012.79 1012.90 1013.22 1013.42 1014.15 1014.39
995.34 995.08 995.20 995.16 994.84 994.76 994.21 994.19 993.77 993.80 995.50 995.21 996.11 995.14 995.38 996.21 997.03 998.01 998.93 999.50 999.90 1000.87 1001.97 1002.76 1003.98 1005.24 1006.09 1007.00 1008.18 1009.13 1010.15 1010.95 1011.68 1012.17 1011.95 1012.18 1012.38 1012.27 1012.29 1012.52 1012.50 1013.11 1013.80 1014.15
994.31 994.22 994.22 994.31 993.85 994.30 994.12 994.16 994.23 993.94 994.11 995.01 994.62 995.10 993.88 994.95 995.13 996.21 997.22 997.97 998.75 999.34 1000.48 1001.45 1002.30 1003.70 1004.96 1006.03 1006.93 1008.09 1009.24 1010.14 1010.80 1011.40 1011.79 1011.73 1012.12 1011.83 1011.99 1012.28 1012.70 1013.55 1013.85 1014.13
994.01 994.32 993.96 993.48 994.09 994.28 994.59 994.22 993.91 994.01 993.78 993.80 993.99 994.86 993.11 994.85 993.56 994.38 995.32 996.41 997.33 998.16 999.06 1000.31 1001.36 1002.38 1003.64 1004.88 1005.88 1006.85 1008.12 1009.20 1010.06 1010.57 1011.25 1011.51 1011.39 1011.88 1011.60 1012.04 1012.36 1012.94 1013.30 1013.89
993.86 993.29 993.53 993.47 993.96 994.22 994.61 994.07 993.30 993.05 992.83 992.67 994.15 993.33 994.72 992.05 992.65 993.36 993.72 994.47 995.72 996.96 997.92 998.96 1000.04 1001.03 1002.31 1003.46 1004.65 1005.77 1006.89 1008.10 1009.06 1009.78 1010.29 1011.04 1011.39 1011.63 1011.84 1011.90 1012.17 1012.14 1012.40 1012.92
992.54 992.44 992.42 993.04 992.99 993.03 993.17 993.03 992.36 992.05 992.26 992.31 992.23 991.29 991.07 991.46 991.97 992.61 993.51 993.13 993.87 995.45 996.80 997.74 998.87 1000.05 1001.09 1002.33 1003.59 1004.77 1005.73 1006.96 1008.00 1008.78 1009.50 1010.20 1010.93 1011.25 1011.38 1011.52 1011.40 1011.88 1011.90 1012.44
991.25 991.29 992.10 992.31 993.19 993.30 992.33 992.05 992.55 992.22 991.96 991.46 990.64 990.69 991.21 991.47 991.63 992.15 992.74 992.72 992.97 993.93 995.24 996.46 997.70 999.00 1000.08 1001.28 1002.50 1003.62 1004.77 1005.93 1007.00 1007.85 1008.73 1009.38 1010.03 1010.43 1010.30 1010.80 1011.39 1011.57 1011.85 1012.05
991.08 990.67 991.00 991.33 992.57 992.56 991.76 992.13 992.04 991.19 990.54 989.85 989.77 989.45 989.73 990.32 991.41 991.69 992.00 992.45 992.41 992.95 993.67 995.12 996.44 997.73 999.06 1000.27 1001.68 1002.87 1003.96 1004.92 1005.98 1006.90 1007.60 1008.28 1008.96 1009.58 1010.00 1010.25 1010.67 1011.15 1011.54 1012.14
991.32 990.75 990.32 990.96 990.39 990.72 991.42 990.60 990.53 991.06 990.86 989.74 989.18 988.38 988.65 989.44 990.53 991.15 991.55 991.72 991.44 991.79 992.54 993.68 994.99 996.37 997.83 999.11 1000.32 1001.65 1002.84 1004.05 1005.15 1005.98 1006.43 1007.12 1007.84 1008.66 1009.43 1009.63 1010.15 1010.76 1011.22 1011.97
990.77 990.68 989.96 989.44 989.98 990.66 990.87 990.56 990.47 989.85 990.30 989.94 989.12 987.73 987.76 988.67 989.56 990.42 990.45 990.53 990.73 991.09 991.31 992.02 993.41 994.87 996.27 997.76 999.01 1000.03 1001.41 1002.75 1003.98 1004.83 1005.51 1006.15 1006.91 1007.59 1008.20 1008.77 1009.27 1010.04 1010.69 1011.35
990.01 990.15 989.77 989.75 989.74 989.51 989.63 989.70 989.53 989.62 989.76 988.93 988.86 988.17 988.42 988.79 988.99 989.89 990.48 990.71 990.92 991.12 991.89 992.33 992.54 993.53 994.84 996.27 997.84 998.78 999.99 1001.08 1002.49 1003.67 1004.48 1005.21 1005.86 1006.46 1006.99 1007.69 1008.43 1009.18 1009.95 1010.63
990.26 989.72 989.33 987.96 988.45 988.66 989.08 989.46 989.25 988.89 988.22 988.21 988.11 988.67 988.22 988.37 989.07 989.61 990.29 990.60 990.70 990.98 991.70 992.67 993.06 992.76 993.66 995.15 996.55 997.83 998.78 999.86 1001.08 1002.24 1003.18 1003.98 1004.84 1005.44 1006.18 1006.86 1007.71 1008.43 1009.32 1009.83
990.72 989.68 989.40 989.20 988.59 988.54 988.11 988.42 988.81 988.26 988.04 988.02 988.00 988.10 988.25 988.31 988.77 989.14 989.88 990.36 990.66 990.73 990.98 992.09 992.91 992.86 993.51 994.80 995.83 997.11 998.01 999.01 999.78 1000.94 1001.96 1002.81 1003.91 1004.82 1005.72 1006.63 1007.29 1008.19 1008.95 1009.68
990.69 989.87 989.86 988.86 988.83 988.74 987.79 987.67 988.14 988.20 988.08 987.90 988.14 987.26 987.80 988.31 988.44 988.69 989.06 989.76 989.87 990.30 990.59 991.11 992.37 993.00 993.37 994.30 995.31 996.56 997.50 998.15 999.14 999.93 1000.75 1001.97 1003.13 1004.25 1005.22 1006.13 1006.71 1007.84 1009.00 1009.71
990.01 990.09 990.20 989.05 989.09 988.58 987.84 986.85 986.81 987.36 987.83 988.11 987.57 987.57 988.24 988.01 987.95 988.14 988.69 989.18 989.69 990.07 990.18 990.27 991.38 992.67 993.16 994.10 995.08 995.83 996.80 997.79 998.57 999.30 1000.21 1001.31 1002.67 1003.86 1004.92 1005.74 1006.34 1006.95 1007.83 1008.36
989.70 990.13 989.92 989.46 989.59 988.21 986.85 987.17 987.13 986.95 986.95 987.29 987.59 987.90 988.08 988.21 988.24 988.21 988.36 988.59 989.06 989.46 989.66 989.77 990.16 991.75 992.88 993.52 994.46 995.62 996.56 997.34 998.09 999.08 999.97 1001.05 1002.36 1003.55 1004.67 1005.22 1005.65 1006.31 1007.03 1007.79
989.88 990.10 990.01 989.51 988.97 988.05 987.49 987.27 986.71 986.70 986.72 986.96 986.92 987.13 987.36 987.77 987.93 987.77 987.78 988.01 988.37 988.80 989.19 989.14 989.18 990.10 991.92 992.96 993.67 994.99 996.13 997.04 997.86 998.80 999.77 1000.81 1001.99 1003.01 1003.98 1004.66 1005.04 1005.79 1006.66 1007.57
990.46 990.22 989.97 989.57 988.55 987.50 987.38 987.69 987.88 987.81 987.16 987.59 987.34 987.13 986.96 986.93 986.75 986.58 987.24 987.72 987.73 987.98 988.25 988.67 988.89 989.32 990.98 992.44 993.37 994.68 996.06 997.08 997.69 998.53 999.56 1000.62 1001.70 1002.74 1003.48 1004.36 1005.06 1005.66 1006.42 1007.32
990.07 989.93 989.35 988.76 988.29 988.12 988.82 988.44 989.06 988.73 989.02 989.12 988.98 988.42 987.84 987.00 986.30 986.79 987.07 986.95 987.66 988.06 988.86 989.57 989.57 989.63 990.94 992.36 993.43 994.64 995.92 997.01 997.78 998.73 999.80 1000.74 1001.73 1002.63 1003.38 1004.17 1004.85 1005.44 1006.22 1006.92
989.34 989.15 988.53 989.11 988.56 989.07 990.30 990.03 989.12 990.28 990.27 989.82 989.36 988.86 988.37 988.05 986.86 987.21 987.92 988.55 989.02 989.18 989.49 989.81 990.22 990.38 991.67 992.67 993.75 994.85 996.08 997.32 998.08 998.99 1000.07 1001.01 1001.66 1002.48 1003.48 1004.47 1005.19 1005.82 1006.51 1007.07
988.55 988.04 988.37 988.56 988.34 989.70 991.09 991.09 991.20 990.79 990.63 990.38 989.97 989.45 988.72 988.54 988.04 988.44 989.01 989.39 990.10 990.46 990.21 990.36 990.81 991.88 992.68 993.96 994.64 995.26 996.52 997.78 998.49 999.33 1000.24 1001.17 1002.04 1002.62 1003.73 1004.73 1005.50 1006.07 1006.70 1006.80
988.91 989.07 988.67 989.63 990.44 990.72 990.65 991.39 991.39 991.50 991.15 991.05 990.39 989.56 989.22 989.36 989.71 989.97 990.29 990.90 991.22 991.57 991.87 992.51 992.95 992.87 993.87 994.94 995.47 996.32 997.33 998.37 999.11 999.83 1000.82 1001.74 1002.61 1003.18 1004.08 1004.94 1005.78 1006.02 1006.66 1007.25
995.11 994.13 989.64 990.24 991.29 991.98 992.34 992.48 992.43 992.42 992.25 992.13 992.27 991.16 991.23 991.25 991.69 991.80 992.10 992.38 992.58 992.70 993.27 994.03 994.36 994.21 995.05 995.89 996.43 997.11 998.06 998.85 999.75 1000.64 1001.46 1002.33 1003.10 1003.60 1004.64 1005.61 1006.19 1006.52 1006.92 1007.66
997.14 996.65 992.29 989.49 991.59 992.09 993.75 994.12 994.22 994.54 994.43 994.40 993.76 993.44 992.83 993.83 994.19 994.13 994.17 994.33 994.27 994.57 994.85 995.67 995.79 995.52 996.27 996.56 996.96 997.82 998.56 999.27 999.97 1000.92 1001.86 1002.69 1003.23 1003.60 1004.27 1004.91 1006.81 1007.70 1008.14 1008.35
Thickness
5833 5815 5812 5831 5847 5856 5870 5868 5853 5872 5873 5851 5845 5850 5851 5854 5850 5845 5842 5838 5836 5834 5839 5839 5835 5834 5830 5826 5818 5814 5810 5809 5805 5801 5799 5798 5796 5797 5795 5797 5794 5795 5788 5785
5817 5809 5839 5849 5852 5850 5861 5866 5870 5884 5873 5860 5856 5853 5865 5860 5853 5853 5852 5846 5844 5843 5843 5840 5837 5836 5832 5826 5823 5817 5812 5810 5806 5806 5805 5807 5805 5808 5807 5807 5802 5798 5793 5789
5822 5835 5847 5843 5843 5841 5851 5862 5872 5873 5870 5867 5863 5848 5860 5870 5866 5861 5861 5863 5857 5850 5847 5845 5840 5837 5836 5831 5826 5820 5817 5813 5809 5810 5809 5804 5805 5805 5804 5804 5802 5800 5793 5790
5826 5848 5838 5836 5835 5848 5834 5869 5876 5877 5836 5828 5859 5828 5857 5866 5861 5862 5861 5862 5865 5861 5859 5857 5849 5842 5840 5837 5834 5828 5821 5816 5812 5810 5811 5807 5802 5799 5804 5803 5805 5800 5792 5788
5820 5832 5832 5825 5841 5854 5842 5873 5866 5872 5858 5844 5854 5836 5864 5872 5861 5863 5869 5870 5871 5874 5869 5863 5860 5854 5849 5845 5840 5834 5827 5821 5818 5814 5810 5809 5802 5806 5807 5804 5799 5792 5790 5786
5829 5846 5842 5844 5851 5853 5863 5858 5865 5866 5862 5820 5851 5830 5859 5833 5873 5878 5884 5881 5880 5879 5877 5871 5869 5865 5856 5852 5846 5841 5832 5824 5821 5818 5812 5808 5807 5801 5804 5800 5798 5794 5794 5789
5814 5822 5839 5847 5825 5843 5840 5836 5814 5812 5817 5817 5847 5845 5823 5894 5893 5891 5892 5894 5891 5886 5883 5878 5872 5868 5862 5855 5850 5845 5838 5828 5825 5820 5816 5810 5806 5803 5800 5800 5798 5798 5796 5794
5793 5786 5824 5837 5826 5825 5829 5835 5815 5787 5802 5825 5866 5838 5867 5905 5907 5899 5894 5908 5907 5893 5888 5885 5881 5874 5869 5862 5856 5849 5843 5833 5829 5824 5818 5814 5808 5805 5805 5805 5806 5801 5800 5795
5799 5800 5832 5834 5831 5830 5828 5818 5854 5835 5849 5836 5858 5870 5884 5887 5890 5895 5892 5901 5904 5900 5894 5890 5887 5881 5875 5869 5861 5855 5847 5838 5832 5826 5821 5816 5812 5810 5812 5810 5806 5802 5800 5798
5813 5795 5825 5833 5828 5828 5830 5852 5818 5836 5804 5808 5843 5852 5850 5871 5868 5882 5886 5888 5901 5905 5903 5897 5892 5887 5882 5876 5868 5861 5853 5843 5836 5829 5827 5822 5819 5817 5815 5814 5808 5804 5800 5793
5810 5804 5810 5822 5812 5811 5810 5821 5835 5840 5836 5817 5818 5845 5898 5882 5877 5873 5882 5894 5908 5912 5907 5903 5898 5894 5888 5883 5875 5866 5858 5847 5839 5834 5832 5828 5825 5821 5816 5814 5809 5803 5799 5790
5806 5797 5785 5805 5831 5831 5823 5817 5829 5820 5804 5829 5840 5851 5914 5901 5893 5888 5896 5907 5915 5919 5921 5916 5907 5901 5894 5887 5881 5874 5866 5855 5847 5842 5837 5834 5831 5827 5820 5816 5813 5806 5797 5790
5804 5785 5771 5781 5808 5823 5804 5817 5832 5839 5843 5820 5817 5834 5899 5893 5893 5891 5887 5894 5902 5905 5903 5906 5911 5904 5899 5893 5883 5880 5873 5866 5857 5849 5843 5838 5835 5830 5826 5821 5816 5809 5799 5791
5791 5789 5775 5780 5791 5818 5797 5802 5821 5831 5820 5822 5825 5840 5869 5881 5876 5882 5881 5888 5895 5897 5896 5894 5897 5907 5905 5898 5888 5881 5877 5873 5864 5856 5849 5843 5837 5832 5827 5824 5817 5809 5800 5793
5774 5762 5783 5791 5809 5813 5814 5807 5808 5811 5824 5814 5834 5837 5857 5873 5877 5882 5884 5884 5886 5890 5894 5890 5888 5898 5899 5893 5889 5882 5878 5873 5869 5859 5852 5847 5841 5834 5827 5819 5814 5805 5797 5787
5766 5754 5772 5778 5795 5797 5801 5814 5809 5812 5820 5824 5831 5837 5873 5880 5883 5879 5880 5879 5881 5882 5889 5894 5888 5888 5892 5889 5885 5879 5875 5873 5869 5862 5857 5851 5843 5833 5824 5816 5811 5800 5787 5780
5750 5751 5747 5747 5779 5787 5775 5803 5814 5812 5815 5813 5804 5830 5855 5853 5861 5870 5874 5873 5871 5880 5888 5894 5890 5884 5887 5885 5883 5877 5874 5872 5866 5862 5856 5850 5840 5829 5820 5814 5808 5800 5789 5783
5739 5738 5750 5747 5759 5732 5790 5820 5820 5815 5823 5829 5825 5830 5836 5841 5854 5864 5872 5871 5873 5880 5885 5894 5895 5886 5885 5887 5882 5877 5873 5868 5863 5857 5852 5845 5835 5824 5815 5811 5806 5798 5790 5781
5744 5739 5731 5731 5739 5769 5786 5803 5807 5805 5805 5829 5827 5835 5838 5842 5844 5843 5864 5874 5874 5878 5885 5894 5903 5896 5887 5884 5884 5875 5867 5862 5858 5851 5846 5840 5832 5823 5815 5807 5804 5797 5786 5774
5727 5735 5735 5735 5730 5735 5787 5791 5806 5807 5776 5817 5821 5823 5830 5839 5813 5830 5857 5865 5872 5878 5887 5888 5895 5894 5886 5881 5879 5868 5858 5852 5850 5847 5843 5837 5829 5818 5810 5803 5796 5790 5780 5768
5700 5709 5712 5735 5737 5764 5769 5784 5788 5754 5771 5792 5800 5807 5813 5816 5834 5847 5858 5860 5864 5868 5868 5873 5879 5882 5877 5875 5870 5860 5853 5845 5846 5843 5836 5827 5819 5811 5805 5797 5790 5782 5772 5762
5700 5702 5714 5728 5729 5714 5750 5762 5760 5762 5775 5786 5795 5802 5806 5815 5834 5838 5831 5832 5837 5844 5852 5860 5861 5866 5866 5865 5859 5851 5843 5842 5839 5833 5823 5815 5811 5805 5796 5785 5775 5768 5758 5749
5710 5727 5728 5739 5746 5754 5743 5749 5761 5769 5769 5776 5784 5794 5804 5807 5814 5812 5811 5819 5819 5825 5836 5846 5848 5846 5848 5845 5845 5839 5835 5830 5826 5820 5812 5803 5794 5791 5783 5772 5760 5753 5745 5740
5735 5744 5742 5727 5723 5728 5740 5745 5752 5758 5763 5769 5779 5790 5795 5792 5793 5793 5796 5797 5802 5808 5813 5818 5822 5829 5827 5828 5830 5826 5822 5817 5811 5803 5795 5788 5777 5775 5768 5759 5748 5743 5732 5724
5646 5649 5724 5714 5706 5714 5721 5729 5738 5745 5752 5753 5758 5769 5769 5773 5772 5775 5775 5780 5786 5792 5797 5799 5802 5811 5811 5811 5811 5812 5806 5802 5793 5785 5778 5770 5764 5758 5746 5735 5729 5727 5717 5709
5623 5627 5679 5710 5706 5710 5703 5714 5720 5718 5721 5726 5734 5739 5751 5745 5744 5750 5754 5762 5770 5773 5779 5777 5784 5793 5793 5796 5797 5795 5792 5787 5779 5768 5760 5752 5746 5742 5738 5731 5712 5696 5689 5685